TimeCDT,TemperatureF,Dew PointF,Humidity,Sea Level PressureIn,VisibilityMPH,Wind Direction,Wind SpeedMPH,Gust SpeedMPH,PrecipitationIn,Events,Conditions,WindDirDegrees,DateUTC
12:02 AM,69.8,64.4,83,29.91,10.0,SE,9.2,-,N/A,Thunderstorm,Mostly Cloudy,130,2013-06-26 05:02:00
12:21 AM,68.0,64.4,88,29.92,10.0,East,8.1,-,N/A,,Mostly Cloudy,90,2013-06-26 05:21:00
12:54 AM,69.1,66.0,90,29.88,10.0,SSE,5.8,-,N/A,,Clear,160,2013-06-26 05:54:00
1:54 AM,71.1,64.9,81,29.85,10.0,SSE,9.2,-,N/A,,Clear,160,2013-06-26 06:54:00
2:54 AM,71.1,66.0,84,29.83,10.0,South,12.7,-,N/A,,Clear,170,2013-06-26 07:54:00
3:54 AM,72.0,66.9,84,29.81,10.0,South,11.5,-,N/A,,Clear,180,2013-06-26 08:54:00
4:54 AM,72.0,68.0,87,29.82,10.0,South,11.5,-,N/A,,Clear,180,2013-06-26 09:54:00
5:54 AM,73.9,69.1,85,29.79,8.0,South,15.0,-,N/A,,Partly Cloudy,170,2013-06-26 10:54:00
6:54 AM,77.0,70.0,79,29.78,9.0,Variable,4.6,-,0.00,,Partly Cloudy,0,2013-06-26 11:54:00
7:17 AM,75.2,69.8,83,29.81,9.0,WNW,6.9,-,N/A,,Mostly Cloudy,300,2013-06-26 12:17:00
7:54 AM,78.1,72.0,81,29.81,9.0,Calm,Calm,-,N/A,,Partly Cloudy,0,2013-06-26 12:54:00
8:54 AM,78.1,71.1,79,29.83,9.0,SW,5.8,-,N/A,,Mostly Cloudy,220,2013-06-26 13:54:00
9:22 AM,78.8,69.8,74,29.84,8.0,WSW,5.8,-,0.01,Rain-Thunderstorm,Light Rain,240,2013-06-26 14:22:00
9:54 AM,73.0,69.1,87,29.83,3.0,West,11.5,21.9,0.07,Rain-Thunderstorm,Heavy Rain,260,2013-06-26 14:54:00
10:54 AM,71.1,66.9,87,29.81,3.0,South,9.2,-,0.15,Rain-Thunderstorm,Light Rain,180,2013-06-26 15:54:00
11:54 AM,72.0,69.1,91,29.80,10.0,South,9.2,-,0.00,,Mostly Cloudy,170,2013-06-26 16:54:00
12:10 PM,71.6,69.8,94,29.81,10.0,SSW,9.2,-,N/A,,Overcast,200,2013-06-26 17:10:00
12:54 PM,73.9,69.1,85,29.80,10.0,SSW,11.5,-,0.00,,Mostly Cloudy,210,2013-06-26 17:54:00
1:54 PM,79.0,72.0,79,29.78,10.0,SSW,10.4,18.4,N/A,,Mostly Cloudy,210,2013-06-26 18:54:00
2:33 PM,78.8,71.6,78,29.79,10.0,SW,12.7,-,N/A,,Overcast,220,2013-06-26 19:33:00
2:54 PM,78.1,72.0,81,29.76,9.0,South,11.5,-,N/A,,Mostly Cloudy,190,2013-06-26 19:54:00
3:54 PM,78.1,72.0,81,29.74,10.0,SW,8.1,-,N/A,,Overcast,220,2013-06-26 20:54:00
4:54 PM,78.1,72.0,81,29.74,9.0,SW,3.5,-,N/A,,Overcast,230,2013-06-26 21:54:00
5:54 PM,80.1,73.0,79,29.74,10.0,WSW,5.8,-,N/A,,Overcast,250,2013-06-26 22:54:00
6:54 PM,81.0,73.0,77,29.72,10.0,WNW,5.8,-,N/A,,Clear,290,2013-06-26 23:54:00
7:54 PM,79.0,73.0,82,29.73,8.0,NW,5.8,-,N/A,,Clear,310,2013-06-27 00:54:00
8:54 PM,78.1,73.0,84,29.73,9.0,Calm,Calm,-,N/A,,Clear,0,2013-06-27 01:54:00
9:54 PM,75.0,73.0,94,29.77,6.0,Calm,Calm,-,N/A,,Clear,0,2013-06-27 02:54:00
10:54 PM,73.9,72.0,93,29.78,4.0,SSW,5.8,-,N/A,,Clear,200,2013-06-27 03:54:00
11:54 PM,75.0,72.0,90,29.78,3.0,WSW,4.6,-,N/A,,Clear,250,2013-06-27 04:54:00